Flag for Canada Weather past 2 weeks in Whitby, Ontario, Canada

Now
73 °F

Passing clouds.


Feels Like: 77 °F
Forecast: 64 / 80 °F
Wind: 3 mph from West

Location: Toronto Buttonville

Current Time: Jul 30, 2015 at 11:18:52 PM

Latest Report: Jul 30, 2015 at 11:00 PM


Visibility: 15 mi

Pressure: 29.85 "Hg

Humidity: 57%

Dew point: 57 °F

Location of WhitbyLocation

Historic Weather in Whitby — Graph

°F

Whitby temperature yesterday

Maximum temperature yesterday: 91 °F (at 4:00 PM)
Minimum temperature yesterday: 68 °F (at 5:00 AM)
Average temperature yesterday: 80 °F

Past Weeks' High & Low Weather Summary

 TemperatureHumidityPressure
High91 °F (Jul 27, 4:00 PM)100% (Jul 18, 4:48 AM)30.14 "Hg (Jul 18, 4:48 AM)
Low54 °F (Jul 16, 4:00 AM)31% (Jul 30, 6:00 PM)29.61 "Hg (Jul 21, 3:00 AM)
Average74 °F61%29.89 "Hg
* Reported Jul 15 10:00 PM — Jul 30 10:00 PM, Whitby, Weather by CustomWeather, © 2015

Note: Actual official high and low records may vary slightly from our data, if they occured in-between our weather recording intervals... More about our weather records

Advertising

Whitby weather history for previous 24 hours

 ConditionsComfort  
Time TempWeatherWind HumidityBarometerVisibility
10:00 PM
Thu, Jul 30
73 °FPassing clouds.12 mph61%29.85 "Hg15 mi
9:00 PM79 °FScattered clouds.8 mph45%29.82 "Hg15 mi
8:00 PM81 °FPassing clouds.14 mph39%29.82 "Hg15 mi
7:00 PM82 °FPassing clouds.10 mph37%29.82 "Hg15 mi
6:00 PM84 °FPassing clouds.16 mph31%29.81 "Hg15 mi
5:00 PM84 °FPassing clouds.17 mph33%29.80 "Hg15 mi
4:00 PM84 °FPassing clouds.20 mph33%29.80 "Hg15 mi
3:00 PM84 °FScattered clouds.10 mph35%29.81 "Hg15 mi
2:00 PM82 °FScattered clouds.17 mph37%29.82 "Hg15 mi
1:00 PM84 °FScattered clouds.13 mph35%29.82 "Hg15 mi
12:00 PM84 °FScattered clouds.12 mph37%29.83 "Hg15 mi
11:00 AM82 °FPassing clouds.9 mph42%29.83 "Hg15 mi
10:00 AM81 °FPassing clouds.9 mph45%29.83 "Hg15 mi
9:00 AM77 °FPassing clouds.8 mph54%29.84 "Hg15 mi
8:00 AM73 °FPassing clouds.7 mph65%29.83 "Hg15 mi
7:00 AM72 °FPassing clouds.6 mph73%29.82 "Hg15 mi
6:00 AM72 °FPassing clouds.6 mph83%29.80 "Hg12 mi
5:00 AM75 °FPassing clouds.5 mph57%29.79 "Hg15 mi
4:00 AM77 °FPassing clouds.7 mph65%29.78 "Hg12 mi
3:00 AM77 °FPassing clouds.6 mph74%29.78 "Hg12 mi
2:00 AM79 °FSprinkles. Overcast.7 mph70%29.79 "Hg12 mi
1:00 AM81 °FPartly cloudy.8 mph62%29.80 "Hg12 mi
12:00 AM81 °FPassing clouds.8 mph58%29.81 "Hg12 mi
11:00 PM
Wed, Jul 29
82 °FPassing clouds.6 mph51%29.82 "Hg12 mi
Weather by CustomWeather, © 2015

See weather overviewHow to use our weather pages